www.pogodaiklimat.ru

Погода и климат >> Архив погоды >> Китай >> Внутренняя Монголия >> Джаруд-Ци


ПОГОДА в Джаруд-Ци

  • Прогноз погоды в Джаруд-Ци
  • Монитор погоды в Джаруд-Ци

АРХИВ ПОГОДЫ в Джаруд-Ци

Время (UTC), дата Ветер
(напр.,м/с)
 
Видим.   Явления Облачность Т
(С)
Тd
(С)
f
(%)
Тe
(С)
Тes
(С)
Комфортность P
(гПа)
Po
(гПа)
Тmin
(С)
Tmax
(С)
R
(мм)
R24
(мм)
S
(см)
03 13.07 В 1 30 км 9/9
[]
+24.4 +18.3 69 +29 +31 душно 1003.3 973.1
06 13.07 В 2 4400 м дождь 9/9 1000 м
[]
+24.6 +19.4 73 +30 +31 очень
душно
1001.1 970.8 +19.1 2
09 13.07 С 1 30 км в посл. час дождь 9/9 1000 м
[]
+22.6 +17.9 75 +28 +28 душно 1001.1 970.8
12 13.07 ЮЗ 1 19 км {дождь} 9/9 1000 м
[]
+22.5 +19.1 81 +28 +28 душно 1001.2 971.0 4
15 13.07 СЗ 1 20 км н/о +21.1 +18.9 87 +25 +25 комфорт 1002.2 971.7
18 13.07 С 1 27 км н/о +20.5 +18.4 88 +25 +25 комфорт 1002.0 971.7 +27.2
21 13.07 С 1 12 км слаб. дождь н/о +19.7 +18.2 91 +23 +23 комфорт 1002.9 972.2
00 14.07 С 2 15 км 5/5 1000 м
[]
+21.7 +18.1 80 +26 +30 душно 1003.6 973.2 0.5
03 14.07 В 2 30 км 8/8 1000 м
[]
+25.9 +17.0 58 +30 +33 душно 1003.5 973.5
06 14.07 В 2 30 км 6/6 1000 м
[]
+26.9 +16.5 53 +30 +37 душно 1002.2 972.0 +19.6
09 14.07 Ю 2 30 км 3/3 1000 м
[]
+27.8 +16.1 49 +31 +34 душно 1002.0 972.2
12 14.07 В 1 19 км 5/5
[]
+25.4 +17.8 63 +30 +30 душно 1002.9 972.7
15 14.07 З 1 17 км н/о +22.1 +18.5 80 +27 +27 душно 1004.1 973.7
18 14.07 С 2 20 км н/о +21.0 +18.4 85 +26 +26 душно 1004.0 973.8 +28.7
21 14.07 С 1 17 км н/о +20.3 +17.7 85 +25 +25 комфорт 1005.1 974.4
00 15.07 В 1 23 км 3/3
[]
+25.2 +18.6 67 +30 +36 душно 1005.7 975.6 0.0
03 15.07 ЮВ 2 26 км 4/4 1000 м
[]
+27.7 +18.7 58 +33 +44 очень
душно
1005.8 975.9
06 15.07 ЮЗ 3 30 км 9/9 1000 м
[]
+29.0 +17.8 51 +33 +35 очень
душно
1004.9 974.8 +20.2
09 15.07 В 2 30 км 6/6
[]
+29.5 +18.6 52 +35 +36 очень
душно
1004.1 974.4
12 15.07 ЮВ 2 26 км 3/3
[]
+26.4 +18.3 61 +31 +31 душно 1004.8 974.8
15 15.07 Ю 1 24 км н/о +23.3 +18.8 76 +30 +30 очень
душно
1005.3 974.9
18 15.07 ЮЗ 1 30 км н/о +21.9 +17.7 77 +26 +26 душно 1005.1 975.0 +30.0
21 15.07 Ю 1 18 км н/о +20.9 +17.9 83 +26 +26 душно 1005.5 974.9
00 16.07 Ю 1 16 км 9/9
[]
+25.0 +20.0 74 +31 +32 очень
душно
1005.5 975.4
03 16.07 Ю 3 25 км 9/9
[]
+29.7 +19.4 54 +35 +37 очень
душно
1004.5 974.8
06 16.07 ЮЗ 5 30 км 9/9
[]
+32.4 +19.3 46 +38 +39 очень
душно
1002.2 972.4 +20.2
09 16.07 З 2 15 км 10/10 1000 м
[]
+30.2 +22.1 62 +39 +39 очень
душно
1003.1 973.5
12 16.07 ЮЗ 2 30 км {дождь} 9/9 1000 м
[]
+26.9 +18.7 61 +32 +32 очень
душно
1004.4 974.4 0.0
15 16.07 ЮЗ 1 30 км н/о +25.8 +17.5 60 +30 +30 душно 1004.7 974.6
18 16.07 Ю 1 22 км н/о +24.2 +19.1 73 +29 +29 душно 1003.9 974.1 +32.5
21 16.07 С 1 18 км н/о +21.8 +18.8 83 +27 +27 душно 1005.3 974.8
00 17.07 С 2 28 км 10/10 1000 м
[]
+23.7 +19.2 76 +29 +29 душно 1006.6 976.5
03 17.07 В 2 24 км 5/5
[]
+27.6 +20.9 67 +35 +44 очень
душно
1006.0 976.0
06 17.07 С 1 30 км 8/8 1000 м
[]
+29.6 +20.2 57 +36 +40 очень
душно
1004.9 975.0 +21.7
09 17.07 В 2 30 км 8/8 1000 м
[]
+28.6 +21.1 64 +36 +37 очень
душно
1004.2 974.4
12 17.07 В 2 30 км 6/6
[]
+26.9 +21.0 70 +34 +34 очень
душно
1005.5 975.4
15 17.07 Ю 1 26 км ?/? +24.6 +19.9 75 +30 +30 очень
душно
1005.8 975.6
18 17.07 штиль 0 18 км н/о +22.9 +20.6 87 +30 +30 очень
душно
1005.4 975.4 +30.4
21 17.07 З 1 12 км н/о +21.5 +19.8 90 +27 +27 душно 1005.0 974.5
00 18.07 С 1 24 км 1/1
[]
+25.8 +21.0 75 +32 +41 очень
душно
1005.5 975.5
03 18.07 Ю 2 24 км 3/3 1000 м
[]
+30.0 +20.6 57 +37 +49 очень
душно
1004.9 975.2
06 18.07 ЮЗ 3 30 км 4/4 1000 м
[]
+32.2 +16.9 40 +36 +43 очень
душно
1003.9 974.1 +21.5
09 18.07 Ю 2 30 км 8/8
[]
+32.0 +17.1 41 +36 +36 очень
душно
1003.1 973.7
12 18.07 В 2 26 км 3/3
[]
+28.9 +19.2 56 +34 +34 очень
душно
1003.2 973.4
15 18.07 З 1 26 км н/о +25.8 +19.2 67 +31 +31 очень
душно
1004.2 974.1
18 18.07 штиль 0 19 км н/о +23.8 +18.9 74 +29 +29 душно 1003.5 973.7 +33.2
21 18.07 З 1 10 км н/о +22.6 +19.4 82 +29 +29 очень
душно
1003.5 973.1
00 19.07 ЮВ 2 9000 м 9/9
[]
+27.0 +21.3 71 +34 +35 очень
душно
1003.6 973.8
03 19.07 Ю 3 11 км 9/9
[]
+30.5 +21.9 60 +39 +41 очень
душно
1003.1 973.5
06 19.07 ЮВ 4 19 км 9/9
[]
+32.4 +18.9 45 +38 +39 очень
душно
1001.6 971.9 +22.1
09 19.07 ЮВ 2 16 км 9/9
[]
+31.3 +20.0 51 +38 +38 очень
душно
1001.1 971.6
12 19.07 ЮВ 2 11 км 9/9
[]
+28.9 +21.4 64 +37 +37 очень
душно
1001.3 971.6
15 19.07 Ю 3 8000 м н/о +26.0 +21.2 75 +33 +33 очень
душно
1001.0 971.0
18 19.07 В 2 6000 м мгла ?/? +24.1 +20.4 80 +30 +30 очень
душно
1000.3 970.6 +33.1
21 19.07 В 1 7000 м н/о +22.6 +19.2 81 +29 +29 очень
душно
1000.4 970.1
00 20.07 Ю 2 7000 м мгла 9/9 1000 м
[]
+23.6 +19.5 78 +29 +30 душно 1000.4 970.5

 

Местоположение метеостанции Джаруд-Ци (Внутренняя Монголия, Китай): широта 44.57 долгота 120.90 высота над уровнем моря 266 м.

В архиве по умолчанию представлена погода в Джаруд-Ци за последнюю неделю. Архивные данные за месяц целиком и за предыдущие месяцы, начиная с января 2011 года, Вы можете получить, выбрав интересующий диапазон дат из раскрывающегося списка и нажав кнопку "Ввод!".


*Определитесь, кто Вы:
робот инопланетянин человек

Внимание! Время в таблицах - всемирное. Для получения местного времени необходимо прибавить поправку, которая равна 8 ч.

Смотрите также архив погоды в соседних городах и на ближайших метеорологических станциях:

Погода в Байрин-Цзоци (Внутренняя Монголия, Китай) (136 км)
Погода в Тунляо (Внутренняя Монголия, Китай) (153 км)
Погода в Чанлине (Гирин, Китай) (246 км)
Погода в Дабейва (Внутренняя Монголия, Китай) (250 км)
Погода в Линьси (Внутренняя Монголия, Китай) (251 км)
Погода в Си-Уджимчин-Ци (Внутренняя Монголия, Китай) (261 км)
Погода в Чжанъу (Ганьсу, Китай) (273 км)
Погода в Тайлае (Хэйлунцзян, Китай) (282 км)
Погода в Аршане (Внутренняя Монголия, Китай) (299 км)
Погода в Чифэне (Внутренняя Монголия, Китай) (300 км)

Пояснения к столбцам:

Ветер - указаны скорость ветра в м/с - средняя за 10 мин, порывы в срок и между сроками (в фигурных скобках) и направление, откуда дует ветер: С - северный, СВ - северо-восточный, В - восточный, ЮВ - юго-восточный, Ю - южный, ЮЗ - юго-западный, З - западный, СЗ - северо-западный.
Видимость - горизонтальная дальность видимости в метрах или километрах. При видимости от 1 до 10 км при отсутствии осадков обычно наблюдается дымка, при ухудшении видимости до 1 км и менее - туман. В сухую погоду видимость может ухудшаться дымом, пылью или мглою.
Явления - указаны атмосферные явления, наблюдавшиеся в срок или в последний час перед сроком; фигурными скобками обозначены явления, наблюдавшиеся между сроками (за 1-3 часа до срока); квадратными скобками обозначены град или гололедные отложения с указанием их диаметра в мм.
Облачность - указаны через наклонную черту общая и нижняя облачность в баллах и высота нижней границы облаков в метрах; квадратными скобками обозначены формы облаков: Ci - перистые, Cs - перисто-слоистые, Cc - перисто-кучевые, Ac - высококучевые, As - высокослоистые, Sc - слоисто-кучевые, Ns - слоисто-дождевые, Cu - кучевые, Cb - кучево-дождевые. Подробнее классификацию облаков см. в Атласе облаков (PDF).
T - Температура воздуха - температура, измеренная на высоте 2 м над землей.
Td - Температура точки росы - температура, при понижении до которой содержащийся в воздухе водяной пар достигнет насыщения.
f - Относительная влажность воздуха - влажноcть воздуха, измеренная на высоте 2 м над землей.
Te - Эффективная температура - температура, которую ощущает одетый по сезону человек в тени. Характеристика душности погоды. При расчете учитывается влияние влажности воздуха и скорости ветра на теплоощущения человека.
Tes - Эффективная температура на солнце - температура, которую ощущает человек, с поправкой на солнечный нагрев. Характеристика знойности погоды. Зависит от высоты солнца над горизонтом, облачности и скорости ветра. Ночью, в пасмурную погоду, а также при ветре 12 м/с и более поправка равна нулю.
P - Атмосферное давление - приведенное к уровню моря атмосферное давление.
Po - Атмосферное давление - измеренное на уровне метеостанции атмосферное давление.
Tmin - Минимальная температура - минимум температуры воздуха на высоте 2 м над землей.
Tmax - Максимальная температура - максимум температуры воздуха на высоте 2 м над землей.
R - Количество осадков - Количество выпавших осадков за период времени, мм. При наведении курсора мыши на число - период времени, за который выпало указанное количество осадков.
R24 - Количество осадков - Количество выпавших осадков за 24 часа, мм.
S - Снежный покров - Высота снежного покрова, см. При наведении курсора мыши на число - состояние снежного покрова и степень покрытия местности в баллах.